Time,TemperatureF,DewpointF,PressureIn,WindDirection,WindDirectionDegrees,WindSpeedMPH,WindSpeedGustMPH,Humidity,HourlyPrecipIn,Conditions,Clouds,dailyrainin,SolarRadiationWatts/m^2,SoftwareType,DateUTC
2013-10-08 00:01:00,44.2,43.2,30.23,NNW,337,0.0,0.0,96,0.00,,,0.00,0.0,meteohub,2013-10-08 04:01:00,
2013-10-08 00:02:00,44.2,43.2,30.23,NNW,337,0.0,0.0,96,0.00,,,0.00,0.0,meteohub,2013-10-08 04:02:00,
2013-10-08 00:03:00,44.2,43.2,30.24,NNW,337,0.0,0.0,96,0.00,,,0.00,0.0,meteohub,2013-10-08 04:03:00,
2013-10-08 00:08:00,44.2,43.5,30.23,NNW,337,0.0,1.0,97,0.00,,,0.00,0.0,meteohub,2013-10-08 04:08:00,
2013-10-08 00:13:00,44.2,43.5,30.23,NNW,337,0.0,1.0,97,0.00,,,0.00,0.0,meteohub,2013-10-08 04:13:00,
2013-10-08 00:19:00,44.1,43.0,30.24,NNW,337,0.0,1.0,96,0.00,,,0.00,0.0,meteohub,2013-10-08 04:19:00,
2013-10-08 00:24:00,44.1,43.0,30.24,NNW,337,0.0,1.0,96,0.00,,,0.00,0.0,meteohub,2013-10-08 04:24:00,
2013-10-08 00:29:00,43.9,42.8,30.24,NNW,337,0.0,0.0,96,0.00,,,0.00,0.0,meteohub,2013-10-08 04:29:00,
2013-10-08 00:34:00,43.9,42.8,30.24,NNW,337,0.0,1.0,96,0.00,,,0.00,0.0,meteohub,2013-10-08 04:34:00,
2013-10-08 00:39:00,43.9,42.8,30.24,NNW,337,0.0,1.0,96,0.00,,,0.00,0.0,meteohub,2013-10-08 04:39:00,
2013-10-08 00:44:00,43.7,42.6,30.24,NNW,337,0.0,1.0,96,0.00,,,0.00,0.0,meteohub,2013-10-08 04:44:00,
2013-10-08 00:49:00,43.5,42.4,30.24,NNW,337,0.0,0.0,96,0.00,,,0.00,0.0,meteohub,2013-10-08 04:49:00,
2013-10-08 00:55:00,43.3,42.3,30.24,NNW,337,0.0,0.0,96,0.00,,,0.00,0.0,meteohub,2013-10-08 04:55:00,
2013-10-08 01:00:00,43.3,42.3,30.24,NNW,337,0.0,0.0,96,0.00,,,0.00,0.0,meteohub,2013-10-08 05:00:00,
2013-10-08 01:05:00,43.2,42.1,30.24,NNW,337,0.0,0.0,96,0.00,,,0.00,0.0,meteohub,2013-10-08 05:05:00,
2013-10-08 01:10:00,43.0,41.9,30.24,NNW,337,0.0,0.0,96,0.00,,,0.00,0.0,meteohub,2013-10-08 05:10:00,
2013-10-08 01:15:00,43.0,42.3,30.24,NNW,337,0.0,0.0,97,0.00,,,0.00,0.0,meteohub,2013-10-08 05:15:00,
2013-10-08 01:20:00,43.0,42.3,30.24,NNW,337,0.0,1.0,97,0.00,,,0.00,0.0,meteohub,2013-10-08 05:20:00,
2013-10-08 01:25:00,43.2,42.4,30.24,NNW,337,0.0,2.0,97,0.00,,,0.00,0.0,meteohub,2013-10-08 05:25:00,
2013-10-08 01:30:00,43.2,42.4,30.24,NNW,337,0.0,2.0,97,0.00,,,0.00,0.0,meteohub,2013-10-08 05:30:00,
2013-10-08 01:35:00,43.3,42.6,30.24,NNW,337,0.0,2.0,97,0.00,,,0.00,0.0,meteohub,2013-10-08 05:35:00,
2013-10-08 01:40:00,43.3,42.8,30.24,NNW,337,0.0,2.0,98,0.00,,,0.00,0.0,meteohub,2013-10-08 05:40:00,
2013-10-08 01:46:00,43.3,42.8,30.24,North,353,1.0,2.0,98,0.00,,,0.00,0.0,meteohub,2013-10-08 05:46:00,
2013-10-08 01:51:00,43.3,42.6,30.24,North,354,0.0,2.0,97,0.00,,,0.00,0.0,meteohub,2013-10-08 05:51:00,
2013-10-08 01:56:00,43.3,42.8,30.24,North,355,0.0,2.0,98,0.00,,,0.00,0.0,meteohub,2013-10-08 05:56:00,
2013-10-08 02:01:00,43.3,42.6,30.24,North,355,1.0,2.0,97,0.00,,,0.00,0.0,meteohub,2013-10-08 06:01:00,
2013-10-08 02:06:00,43.2,42.4,30.24,North,355,0.0,1.0,97,0.00,,,0.00,0.0,meteohub,2013-10-08 06:06:00,
2013-10-08 02:11:00,43.2,42.4,30.24,North,355,0.0,1.0,97,0.00,,,0.00,0.0,meteohub,2013-10-08 06:11:00,
2013-10-08 02:17:00,43.2,42.4,30.24,North,355,0.0,1.0,97,0.00,,,0.00,0.0,meteohub,2013-10-08 06:17:00,
2013-10-08 02:22:00,43.0,42.3,30.24,North,355,0.0,0.0,97,0.00,,,0.00,0.0,meteohub,2013-10-08 06:22:00,
2013-10-08 02:27:00,43.0,42.3,30.24,North,355,0.0,1.0,97,0.00,,,0.00,0.0,meteohub,2013-10-08 06:27:00,
2013-10-08 02:32:00,43.0,42.3,30.24,North,355,0.0,1.0,97,0.00,,,0.00,0.0,meteohub,2013-10-08 06:32:00,
2013-10-08 02:37:00,42.8,42.1,30.25,North,355,0.0,1.0,97,0.00,,,0.00,0.0,meteohub,2013-10-08 06:37:00,
2013-10-08 02:42:00,42.6,41.9,30.25,North,355,0.0,1.0,97,0.00,,,0.00,0.0,meteohub,2013-10-08 06:42:00,
2013-10-08 02:47:00,42.6,41.9,30.25,North,355,0.0,1.0,97,0.00,,,0.00,0.0,meteohub,2013-10-08 06:47:00,
2013-10-08 02:52:00,42.4,41.7,30.25,North,355,0.0,1.0,97,0.00,,,0.00,0.0,meteohub,2013-10-08 06:52:00,
2013-10-08 02:57:00,42.4,41.7,30.25,North,355,0.0,0.0,97,0.00,,,0.00,0.0,meteohub,2013-10-08 06:57:00,
2013-10-08 03:03:00,42.3,41.5,30.25,North,355,0.0,0.0,97,0.00,,,0.00,0.0,meteohub,2013-10-08 07:03:00,
2013-10-08 03:08:00,42.3,41.5,30.25,North,355,0.0,0.0,97,0.00,,,0.00,0.0,meteohub,2013-10-08 07:08:00,
2013-10-08 03:13:00,42.1,41.4,30.25,North,355,0.0,0.0,97,0.00,,,0.00,0.0,meteohub,2013-10-08 07:13:00,
2013-10-08 03:18:00,42.1,41.4,30.25,North,355,0.0,0.0,97,0.00,,,0.00,0.0,meteohub,2013-10-08 07:18:00,
2013-10-08 03:23:00,42.1,41.4,30.25,North,355,0.0,0.0,97,0.00,,,0.00,0.0,meteohub,2013-10-08 07:23:00,
2013-10-08 03:28:00,41.9,41.2,30.25,North,355,0.0,0.0,97,0.00,,,0.00,0.0,meteohub,2013-10-08 07:28:00,
2013-10-08 03:33:00,41.7,41.2,30.25,North,355,0.0,0.0,98,0.00,,,0.00,0.0,meteohub,2013-10-08 07:33:00,
2013-10-08 03:38:00,41.7,41.2,30.25,North,355,0.0,0.0,98,0.00,,,0.00,0.0,meteohub,2013-10-08 07:38:00,
2013-10-08 03:43:00,41.5,41.0,30.25,North,355,0.0,0.0,98,0.00,,,0.00,0.0,meteohub,2013-10-08 07:43:00,
2013-10-08 03:49:00,41.5,41.0,30.25,North,355,0.0,1.0,98,0.00,,,0.00,0.0,meteohub,2013-10-08 07:49:00,
2013-10-08 03:54:00,41.5,40.8,30.25,North,355,0.0,1.0,97,0.00,,,0.00,0.0,meteohub,2013-10-08 07:54:00,
2013-10-08 03:59:00,41.4,40.6,30.25,North,355,1.0,1.0,97,0.00,,,0.00,0.0,meteohub,2013-10-08 07:59:00,
2013-10-08 04:04:00,41.4,40.6,30.25,North,355,0.0,1.0,97,0.00,,,0.00,0.0,meteohub,2013-10-08 08:04:00,
2013-10-08 04:09:00,41.4,40.6,30.25,North,355,0.0,1.0,97,0.00,,,0.00,0.0,meteohub,2013-10-08 08:09:00,
2013-10-08 04:14:00,41.4,40.8,30.25,North,355,0.0,1.0,98,0.00,,,0.00,0.0,meteohub,2013-10-08 08:14:00,
2013-10-08 04:19:00,41.2,40.6,30.26,North,355,0.0,1.0,98,0.00,,,0.00,0.0,meteohub,2013-10-08 08:19:00,
2013-10-08 04:24:00,41.2,40.5,30.26,North,355,0.0,1.0,97,0.00,,,0.00,0.0,meteohub,2013-10-08 08:24:00,
2013-10-08 04:29:00,41.2,40.6,30.26,North,355,0.0,1.0,98,0.00,,,0.00,0.0,meteohub,2013-10-08 08:29:00,
2013-10-08 04:34:00,41.0,40.5,30.26,North,355,0.0,0.0,98,0.00,,,0.00,0.0,meteohub,2013-10-08 08:34:00,
2013-10-08 04:40:00,41.0,40.5,30.26,North,355,0.0,0.0,98,0.00,,,0.00,0.0,meteohub,2013-10-08 08:40:00,
2013-10-08 04:45:00,41.0,40.5,30.26,North,355,0.0,0.0,98,0.00,,,0.00,0.0,meteohub,2013-10-08 08:45:00,
2013-10-08 04:50:00,40.8,40.3,30.26,North,355,0.0,0.0,98,0.00,,,0.00,0.0,meteohub,2013-10-08 08:50:00,
2013-10-08 04:55:00,40.8,40.3,30.26,North,355,0.0,0.0,98,0.00,,,0.00,0.0,meteohub,2013-10-08 08:55:00,
2013-10-08 05:00:00,40.6,40.1,30.26,North,355,0.0,0.0,98,0.00,,,0.00,0.0,meteohub,2013-10-08 09:00:00,
2013-10-08 05:05:00,40.6,40.1,30.26,North,355,0.0,0.0,98,0.00,,,0.00,0.0,meteohub,2013-10-08 09:05:00,
2013-10-08 05:10:00,40.5,39.9,30.26,North,355,0.0,0.0,98,0.00,,,0.00,0.0,meteohub,2013-10-08 09:10:00,
2013-10-08 05:15:00,40.5,39.9,30.26,North,355,0.0,1.0,98,0.00,,,0.00,0.0,meteohub,2013-10-08 09:15:00,
2013-10-08 05:20:00,40.5,39.9,30.27,North,356,0.0,1.0,98,0.00,,,0.00,0.0,meteohub,2013-10-08 09:20:00,
2013-10-08 05:25:00,40.5,39.9,30.26,North,355,0.0,1.0,98,0.00,,,0.00,0.0,meteohub,2013-10-08 09:25:00,
2013-10-08 05:30:00,40.5,39.9,30.27,North,355,0.0,0.0,98,0.00,,,0.00,0.0,meteohub,2013-10-08 09:30:00,
2013-10-08 05:36:00,40.5,39.9,30.27,North,355,0.0,0.0,98,0.00,,,0.00,0.0,meteohub,2013-10-08 09:36:00,
2013-10-08 05:41:00,40.3,39.7,30.27,North,356,0.0,0.0,98,0.00,,,0.00,0.0,meteohub,2013-10-08 09:41:00,
2013-10-08 05:46:00,40.3,39.7,30.27,North,355,0.0,0.0,98,0.00,,,0.00,0.0,meteohub,2013-10-08 09:46:00,
2013-10-08 05:51:00,40.3,39.7,30.27,North,355,0.0,0.0,98,0.00,,,0.00,0.0,meteohub,2013-10-08 09:51:00,
2013-10-08 05:56:00,40.1,39.6,30.27,North,355,0.0,0.0,98,0.00,,,0.00,0.0,meteohub,2013-10-08 09:56:00,
2013-10-08 06:01:00,40.1,39.6,30.27,North,355,0.0,0.0,98,0.00,,,0.00,0.0,meteohub,2013-10-08 10:01:00,
2013-10-08 06:06:00,39.9,39.4,30.28,North,355,0.0,0.0,98,0.00,,,0.00,0.0,meteohub,2013-10-08 10:06:00,
2013-10-08 06:11:00,39.9,39.4,30.28,North,355,0.0,0.0,98,0.00,,,0.00,0.0,meteohub,2013-10-08 10:11:00,
2013-10-08 06:16:00,39.9,39.4,30.28,North,355,0.0,0.0,98,0.00,,,0.00,0.0,meteohub,2013-10-08 10:16:00,
2013-10-08 06:21:00,39.7,39.2,30.28,North,355,0.0,0.0,98,0.00,,,0.00,0.0,meteohub,2013-10-08 10:21:00,
2013-10-08 06:26:00,39.7,39.2,30.28,North,355,0.0,0.0,98,0.00,,,0.00,0.0,meteohub,2013-10-08 10:26:00,
2013-10-08 06:31:00,39.7,39.2,30.29,North,355,0.0,1.0,98,0.00,,,0.00,0.0,meteohub,2013-10-08 10:31:00,
2013-10-08 06:37:00,39.9,39.4,30.29,North,355,0.0,1.0,98,0.00,,,0.00,0.0,meteohub,2013-10-08 10:37:00,
2013-10-08 06:42:00,39.9,39.4,30.29,North,355,0.0,1.0,98,0.00,,,0.00,0.0,meteohub,2013-10-08 10:42:00,
2013-10-08 06:47:00,39.7,39.2,30.29,North,355,0.0,0.0,98,0.00,,,0.00,0.0,meteohub,2013-10-08 10:47:00,
2013-10-08 06:52:00,39.7,39.2,30.29,North,355,0.0,0.0,98,0.00,,,0.00,0.0,meteohub,2013-10-08 10:52:00,
2013-10-08 06:57:00,39.6,39.0,30.29,North,356,0.0,0.0,98,0.00,,,0.00,0.0,meteohub,2013-10-08 10:57:00,
2013-10-08 07:02:00,39.6,39.0,30.30,North,356,0.0,1.0,98,0.00,,,0.00,0.0,meteohub,2013-10-08 11:02:00,
2013-10-08 07:07:00,39.4,38.8,30.30,North,356,0.0,1.0,98,0.00,,,0.00,0.0,meteohub,2013-10-08 11:07:00,
2013-10-08 07:12:00,39.2,38.7,30.30,North,356,0.0,1.0,98,0.00,,,0.00,0.0,meteohub,2013-10-08 11:12:00,
2013-10-08 07:17:00,39.2,38.7,30.30,North,356,0.0,1.0,98,0.00,,,0.00,0.0,meteohub,2013-10-08 11:17:00,
2013-10-08 07:22:00,39.2,38.7,30.30,North,356,0.0,0.0,98,0.00,,,0.00,0.0,meteohub,2013-10-08 11:22:00,
2013-10-08 07:27:00,39.2,38.7,30.31,North,356,0.0,0.0,98,0.00,,,0.00,0.0,meteohub,2013-10-08 11:27:00,
2013-10-08 07:32:00,39.2,38.7,30.31,North,356,0.0,0.0,98,0.00,,,0.00,0.0,meteohub,2013-10-08 11:32:00,
2013-10-08 07:38:00,39.4,39.2,30.31,North,356,0.0,0.0,99,0.00,,,0.00,0.0,meteohub,2013-10-08 11:38:00,
2013-10-08 07:43:00,39.6,39.4,30.31,North,356,0.0,0.0,99,0.00,,,0.00,0.0,meteohub,2013-10-08 11:43:00,
2013-10-08 07:48:00,39.6,39.4,30.31,North,356,0.0,0.0,99,0.00,,,0.00,7.0,meteohub,2013-10-08 11:48:00,
2013-10-08 07:53:00,39.6,39.4,30.32,North,356,0.0,0.0,99,0.00,,,0.00,9.0,meteohub,2013-10-08 11:53:00,
2013-10-08 07:58:00,39.6,39.4,30.32,North,356,0.0,0.0,99,0.00,,,0.00,12.0,meteohub,2013-10-08 11:58:00,
2013-10-08 08:03:00,39.6,39.4,30.32,North,356,0.0,0.0,99,0.00,,,0.00,14.0,meteohub,2013-10-08 12:03:00,
2013-10-08 08:08:00,39.6,39.4,30.32,North,356,0.0,0.0,99,0.00,,,0.00,16.0,meteohub,2013-10-08 12:08:00,
2013-10-08 08:13:00,39.7,39.6,30.32,North,356,0.0,0.0,99,0.00,,,0.00,18.0,meteohub,2013-10-08 12:13:00,
2013-10-08 08:18:00,39.9,39.7,30.32,North,355,0.0,0.0,99,0.00,,,0.00,19.0,meteohub,2013-10-08 12:18:00,
2013-10-08 08:23:00,39.9,39.7,30.32,North,356,0.0,0.0,99,0.00,,,0.00,21.0,meteohub,2013-10-08 12:23:00,
2013-10-08 08:28:00,40.3,40.1,30.32,ENE,67,0.0,0.0,99,0.00,,,0.00,23.0,meteohub,2013-10-08 12:28:00,
2013-10-08 08:33:00,40.6,40.5,30.32,ENE,59,1.0,1.0,99,0.00,,,0.00,25.0,meteohub,2013-10-08 12:33:00,
2013-10-08 08:38:00,41.2,41.0,30.32,East,81,3.0,3.0,99,0.00,,,0.00,26.0,meteohub,2013-10-08 12:38:00,
2013-10-08 08:43:00,42.1,41.9,30.32,ENE,77,0.0,3.0,99,0.00,,,0.00,26.0,meteohub,2013-10-08 12:43:00,
2013-10-08 08:49:00,43.9,43.7,30.32,NE,50,1.0,3.0,99,0.00,,,0.00,160.0,meteohub,2013-10-08 12:49:00,
2013-10-08 08:54:00,46.0,46.0,30.32,ENE,71,4.0,4.0,100,0.00,,,0.00,176.0,meteohub,2013-10-08 12:54:00,
2013-10-08 08:59:00,47.3,47.3,30.32,ENE,59,3.0,7.0,100,0.00,,,0.00,193.0,meteohub,2013-10-08 12:59:00,
2013-10-08 09:04:00,48.2,48.2,30.32,NE,40,3.0,7.0,100,0.00,,,0.00,211.0,meteohub,2013-10-08 13:04:00,
2013-10-08 09:09:00,48.9,48.9,30.32,NE,43,2.0,7.0,100,0.00,,,0.00,229.0,meteohub,2013-10-08 13:09:00,
2013-10-08 09:14:00,49.6,49.6,30.32,NNE,32,2.0,7.0,100,0.00,,,0.00,246.0,meteohub,2013-10-08 13:14:00,
2013-10-08 09:19:00,50.2,50.2,30.32,ENE,78,3.0,7.0,100,0.00,,,0.00,262.0,meteohub,2013-10-08 13:19:00,
2013-10-08 09:24:00,51.1,50.0,30.32,North,353,0.0,6.0,96,0.00,,,0.00,278.0,meteohub,2013-10-08 13:24:00,
2013-10-08 09:29:00,52.0,49.5,30.32,East,84,2.0,8.0,91,0.00,,,0.00,292.0,meteohub,2013-10-08 13:29:00,
2013-10-08 09:34:00,53.1,50.5,30.32,East,100,4.0,8.0,91,0.00,,,0.00,308.0,meteohub,2013-10-08 13:34:00,
2013-10-08 09:39:00,53.8,50.0,30.32,NE,47,5.0,6.0,87,0.00,,,0.00,323.0,meteohub,2013-10-08 13:39:00,
2013-10-08 09:44:00,54.7,50.9,30.32,SE,138,3.0,7.0,87,0.00,,,0.00,338.0,meteohub,2013-10-08 13:44:00,
2013-10-08 09:49:00,55.2,50.7,30.32,SE,136,6.0,7.0,85,0.00,,,0.00,353.0,meteohub,2013-10-08 13:49:00,
2013-10-08 09:55:00,55.8,50.4,30.32,ENE,62,7.0,7.0,82,0.00,,,0.00,371.0,meteohub,2013-10-08 13:55:00,
2013-10-08 10:00:00,55.9,50.2,30.32,NE,43,2.0,8.0,81,0.00,,,0.00,381.0,meteohub,2013-10-08 14:00:00,
2013-10-08 10:05:00,55.9,50.2,30.32,SE,124,3.0,9.0,81,0.00,,,0.00,394.0,meteohub,2013-10-08 14:05:00,
2013-10-08 10:10:00,56.3,50.2,30.32,NE,43,3.0,9.0,80,0.00,,,0.00,408.0,meteohub,2013-10-08 14:10:00,
2013-10-08 10:15:00,56.8,51.1,30.32,ENE,73,4.0,8.0,81,0.00,,,0.00,422.0,meteohub,2013-10-08 14:15:00,
2013-10-08 10:20:00,57.6,51.1,30.32,ENE,66,4.0,8.0,79,0.00,,,0.00,434.0,meteohub,2013-10-08 14:20:00,
2013-10-08 10:25:00,57.9,51.1,30.32,SSE,154,4.0,9.0,78,0.00,,,0.00,445.0,meteohub,2013-10-08 14:25:00,
2013-10-08 10:30:00,57.9,50.0,30.32,SE,124,2.0,13.0,75,0.00,,,0.00,466.0,meteohub,2013-10-08 14:30:00,
2013-10-08 10:35:00,57.9,50.7,30.31,NNE,21,7.0,13.0,77,0.00,,,0.00,471.0,meteohub,2013-10-08 14:35:00,
2013-10-08 10:40:00,58.1,50.5,30.31,ESE,114,5.0,13.0,76,0.00,,,0.00,483.0,meteohub,2013-10-08 14:40:00,
2013-10-08 10:46:00,58.3,50.4,30.31,East,97,3.0,13.0,75,0.00,,,0.00,496.0,meteohub,2013-10-08 14:46:00,
2013-10-08 10:51:00,58.3,50.7,30.31,ESE,102,1.0,10.0,76,0.00,,,0.00,508.0,meteohub,2013-10-08 14:51:00,
2013-10-08 10:56:00,58.8,52.0,30.31,SE,131,3.0,10.0,78,0.00,,,0.00,526.0,meteohub,2013-10-08 14:56:00,
2013-10-08 11:01:00,59.4,51.4,30.31,NNE,21,1.0,10.0,75,0.00,,,0.00,531.0,meteohub,2013-10-08 15:01:00,
2013-10-08 11:06:00,59.7,51.4,30.31,NNE,17,2.0,10.0,74,0.00,,,0.00,543.0,meteohub,2013-10-08 15:06:00,
2013-10-08 11:11:00,59.9,50.9,30.31,NNE,15,4.0,13.0,72,0.00,,,0.00,554.0,meteohub,2013-10-08 15:11:00,
2013-10-08 11:16:00,59.7,50.7,30.31,ESE,116,6.0,13.0,72,0.00,,,0.00,566.0,meteohub,2013-10-08 15:16:00,
2013-10-08 11:21:00,59.7,51.1,30.31,SE,127,3.0,13.0,73,0.00,,,0.00,577.0,meteohub,2013-10-08 15:21:00,
2013-10-08 11:26:00,60.6,52.0,30.31,ESE,104,5.0,11.0,73,0.00,,,0.00,587.0,meteohub,2013-10-08 15:26:00,
2013-10-08 11:31:00,61.0,52.0,30.31,SE,130,11.0,12.0,72,0.00,,,0.00,619.0,meteohub,2013-10-08 15:31:00,
2013-10-08 11:36:00,61.7,51.4,30.30,ESE,117,1.0,12.0,69,0.00,,,0.00,610.0,meteohub,2013-10-08 15:36:00,
2013-10-08 11:42:00,61.3,49.5,30.30,ESE,121,7.0,12.0,65,0.00,,,0.00,619.0,meteohub,2013-10-08 15:42:00,
2013-10-08 11:47:00,61.9,51.3,30.30,ENE,59,4.0,18.0,68,0.00,,,0.00,624.0,meteohub,2013-10-08 15:47:00,
2013-10-08 11:52:00,62.2,50.4,30.30,NE,43,3.0,18.0,65,0.00,,,0.00,638.0,meteohub,2013-10-08 15:52:00,
2013-10-08 11:57:00,62.6,50.7,30.30,NNE,27,3.0,11.0,65,0.00,,,0.00,645.0,meteohub,2013-10-08 15:57:00,
2013-10-08 12:02:00,62.8,51.3,30.30,NE,55,0.0,10.0,66,0.00,,,0.00,661.0,meteohub,2013-10-08 16:02:00,
2013-10-08 12:07:00,63.7,50.9,30.30,SSE,154,3.0,10.0,63,0.00,,,0.00,675.0,meteohub,2013-10-08 16:07:00,
2013-10-08 12:12:00,63.0,50.2,30.30,ENE,69,5.0,13.0,63,0.00,,,0.00,664.0,meteohub,2013-10-08 16:12:00,
2013-10-08 12:17:00,63.3,51.8,30.30,South,170,3.0,13.0,66,0.00,,,0.00,679.0,meteohub,2013-10-08 16:17:00,
2013-10-08 12:22:00,63.5,49.3,30.30,NNE,27,6.0,13.0,60,0.00,,,0.00,679.0,meteohub,2013-10-08 16:22:00,
2013-10-08 12:27:00,63.3,50.5,30.30,ESE,123,3.0,14.0,63,0.00,,,0.00,691.0,meteohub,2013-10-08 16:27:00,
2013-10-08 12:32:00,63.3,50.0,30.30,South,183,9.0,14.0,62,0.00,,,0.00,707.0,meteohub,2013-10-08 16:32:00,
2013-10-08 12:37:00,63.7,50.9,30.29,East,90,2.0,14.0,63,0.00,,,0.00,689.0,meteohub,2013-10-08 16:37:00,
2013-10-08 12:42:00,64.4,50.2,30.29,NNE,31,5.0,11.0,60,0.00,,,0.00,707.0,meteohub,2013-10-08 16:42:00,
2013-10-08 12:47:00,63.7,50.0,30.30,NW,306,0.0,12.0,61,0.00,,,0.00,710.0,meteohub,2013-10-08 16:47:00,
2013-10-08 12:53:00,63.5,49.3,30.29,East,89,4.0,12.0,60,0.00,,,0.00,712.0,meteohub,2013-10-08 16:53:00,
2013-10-08 12:58:00,63.9,49.6,30.29,SE,127,11.0,14.0,60,0.00,,,0.00,701.0,meteohub,2013-10-08 16:58:00,
2013-10-08 13:03:00,64.2,49.1,30.29,ESE,111,2.0,14.0,58,0.00,,,0.00,701.0,meteohub,2013-10-08 17:03:00,
2013-10-08 13:08:00,64.2,50.9,30.29,East,82,6.0,13.0,62,0.00,,,0.00,707.0,meteohub,2013-10-08 17:08:00,
2013-10-08 13:13:00,64.2,50.0,30.29,East,92,4.0,13.0,60,0.00,,,0.00,724.0,meteohub,2013-10-08 17:13:00,
2013-10-08 13:18:00,64.4,49.3,30.29,East,84,4.0,12.0,58,0.01,,,0.01,737.0,meteohub,2013-10-08 17:18:00,
2013-10-08 13:23:00,64.6,48.6,30.28,SE,136,7.0,12.0,56,0.01,,,0.01,737.0,meteohub,2013-10-08 17:23:00,
2013-10-08 13:28:00,64.2,50.0,30.29,NE,42,2.0,12.0,60,0.01,,,0.01,738.0,meteohub,2013-10-08 17:28:00,
2013-10-08 13:34:00,64.9,50.7,30.28,NE,43,3.0,12.0,60,0.01,,,0.01,714.0,meteohub,2013-10-08 17:34:00,
2013-10-08 13:39:00,65.1,48.6,30.28,East,90,2.0,12.0,55,0.01,,,0.01,712.0,meteohub,2013-10-08 17:39:00,
2013-10-08 13:44:00,64.9,49.3,30.28,ESE,106,5.0,11.0,57,0.01,,,0.01,700.0,meteohub,2013-10-08 17:44:00,
2013-10-08 13:49:00,65.1,50.0,30.27,ESE,107,7.0,12.0,58,0.01,,,0.01,700.0,meteohub,2013-10-08 17:49:00,
2013-10-08 13:54:00,65.8,49.6,30.27,North,10,5.0,14.0,56,0.01,,,0.01,689.0,meteohub,2013-10-08 17:54:00,
2013-10-08 13:59:00,65.8,50.2,30.27,NE,52,3.0,14.0,57,0.01,,,0.01,696.0,meteohub,2013-10-08 17:59:00,
2013-10-08 14:04:00,65.7,50.0,30.27,NE,52,5.0,11.0,57,0.01,,,0.01,689.0,meteohub,2013-10-08 18:04:00,
2013-10-08 14:09:00,65.5,49.3,30.26,SE,136,5.0,9.0,56,0.01,,,0.01,691.0,meteohub,2013-10-08 18:09:00,
2013-10-08 14:14:00,65.7,49.1,30.26,ENE,69,2.0,11.0,55,0.00,,,0.01,686.0,meteohub,2013-10-08 18:14:00,
2013-10-08 14:19:00,65.8,49.3,30.25,NE,53,3.0,11.0,55,0.00,,,0.01,680.0,meteohub,2013-10-08 18:19:00,
2013-10-08 14:25:00,66.4,50.2,30.25,East,90,5.0,11.0,56,0.00,,,0.01,680.0,meteohub,2013-10-08 18:25:00,
2013-10-08 14:30:00,66.7,52.0,30.25,NNE,12,3.0,11.0,59,0.00,,,0.01,671.0,meteohub,2013-10-08 18:30:00,
2013-10-08 14:35:00,66.7,50.5,30.24,NNE,24,5.0,11.0,56,0.00,,,0.01,670.0,meteohub,2013-10-08 18:35:00,
2013-10-08 14:40:00,66.9,51.3,30.24,NNE,32,6.0,11.0,57,0.00,,,0.01,666.0,meteohub,2013-10-08 18:40:00,
2013-10-08 14:45:00,66.9,49.3,30.23,ENE,62,10.0,10.0,53,0.00,,,0.01,661.0,meteohub,2013-10-08 18:45:00,
2013-10-08 14:50:00,66.7,49.6,30.23,ENE,67,6.0,16.0,54,0.00,,,0.01,650.0,meteohub,2013-10-08 18:50:00,
2013-10-08 14:55:00,67.5,51.3,30.23,NE,35,6.0,16.0,56,0.00,,,0.01,645.0,meteohub,2013-10-08 18:55:00,
2013-10-08 15:00:00,67.3,50.0,30.23,NNE,21,2.0,13.0,54,0.00,,,0.01,636.0,meteohub,2013-10-08 19:00:00,
2013-10-08 15:06:00,67.1,49.5,30.22,ENE,57,3.0,15.0,53,0.00,,,0.01,628.0,meteohub,2013-10-08 19:06:00,
2013-10-08 15:11:00,67.5,49.8,30.23,NE,50,4.0,15.0,53,0.00,,,0.01,619.0,meteohub,2013-10-08 19:11:00,
2013-10-08 15:16:00,67.8,49.1,30.23,North,11,5.0,14.0,51,0.00,,,0.01,608.0,meteohub,2013-10-08 19:16:00,
2013-10-08 15:21:00,67.6,48.9,30.22,ENE,68,4.0,14.0,51,0.00,,,0.01,599.0,meteohub,2013-10-08 19:21:00,
2013-10-08 15:26:00,67.6,49.5,30.22,NE,38,5.0,13.0,52,0.00,,,0.01,591.0,meteohub,2013-10-08 19:26:00,
2013-10-08 15:31:00,67.8,48.6,30.22,ENE,71,4.0,13.0,50,0.00,,,0.01,582.0,meteohub,2013-10-08 19:31:00,
2013-10-08 15:36:00,68.2,49.3,30.22,ENE,62,5.0,13.0,51,0.00,,,0.01,568.0,meteohub,2013-10-08 19:36:00,
2013-10-08 15:41:00,68.0,49.6,30.22,ENE,63,9.0,13.0,52,0.00,,,0.01,561.0,meteohub,2013-10-08 19:41:00,
2013-10-08 15:47:00,67.6,48.9,30.22,ENE,67,6.0,13.0,51,0.00,,,0.01,548.0,meteohub,2013-10-08 19:47:00,
2013-10-08 15:52:00,68.0,49.3,30.22,NE,39,6.0,13.0,51,0.00,,,0.01,536.0,meteohub,2013-10-08 19:52:00,
2013-10-08 15:57:00,67.8,48.6,30.22,North,0,9.0,11.0,50,0.00,,,0.01,524.0,meteohub,2013-10-08 19:57:00,
2013-10-08 16:02:00,67.6,47.8,30.22,ESE,115,2.0,12.0,49,0.00,,,0.01,513.0,meteohub,2013-10-08 20:02:00,
2013-10-08 16:07:00,67.8,47.5,30.22,NE,55,4.0,12.0,48,0.00,,,0.01,503.0,meteohub,2013-10-08 20:07:00,
2013-10-08 16:12:00,68.5,48.6,30.22,East,86,2.0,12.0,49,0.00,,,0.01,490.0,meteohub,2013-10-08 20:12:00,
2013-10-08 16:17:00,68.7,47.7,30.21,ENE,67,7.0,12.0,47,0.00,,,0.01,478.0,meteohub,2013-10-08 20:17:00,
2013-10-08 16:22:00,68.0,47.7,30.22,East,95,9.0,11.0,48,0.00,,,0.01,464.0,meteohub,2013-10-08 20:22:00,
2013-10-08 16:27:00,67.8,47.5,30.21,ENE,74,3.0,13.0,48,0.00,,,0.01,452.0,meteohub,2013-10-08 20:27:00,
2013-10-08 16:32:00,68.2,48.9,30.21,South,188,1.0,13.0,50,0.00,,,0.01,438.0,meteohub,2013-10-08 20:32:00,
2013-10-08 16:37:00,68.2,48.4,30.21,ENE,63,4.0,13.0,49,0.00,,,0.01,425.0,meteohub,2013-10-08 20:37:00,
2013-10-08 16:42:00,68.2,49.3,30.21,South,181,2.0,10.0,51,0.00,,,0.01,408.0,meteohub,2013-10-08 20:42:00,
2013-10-08 16:47:00,68.2,48.9,30.21,North,349,5.0,10.0,50,0.00,,,0.01,394.0,meteohub,2013-10-08 20:47:00,
2013-10-08 16:52:00,68.0,48.2,30.21,ESE,123,5.0,10.0,49,0.00,,,0.01,381.0,meteohub,2013-10-08 20:52:00,
2013-10-08 16:57:00,68.2,48.4,30.21,ENE,71,5.0,10.0,49,0.00,,,0.01,366.0,meteohub,2013-10-08 20:57:00,
2013-10-08 17:02:00,68.4,48.9,30.21,NE,52,2.0,10.0,50,0.00,,,0.01,348.0,meteohub,2013-10-08 21:02:00,
2013-10-08 17:07:00,67.8,48.6,30.21,East,86,3.0,10.0,50,0.00,,,0.01,334.0,meteohub,2013-10-08 21:07:00,
2013-10-08 17:13:00,67.8,48.0,30.21,ENE,67,7.0,11.0,49,0.00,,,0.01,318.0,meteohub,2013-10-08 21:13:00,
2013-10-08 17:18:00,67.8,48.0,30.20,ENE,57,2.0,11.0,49,0.00,,,0.01,302.0,meteohub,2013-10-08 21:18:00,
2013-10-08 17:23:00,67.8,48.6,30.21,East,97,6.0,11.0,50,0.00,,,0.01,285.0,meteohub,2013-10-08 21:23:00,
2013-10-08 17:28:00,67.6,48.4,30.21,ENE,65,3.0,12.0,50,0.00,,,0.01,272.0,meteohub,2013-10-08 21:28:00,
2013-10-08 17:33:00,67.5,47.7,30.21,NNE,23,4.0,12.0,49,0.00,,,0.01,257.0,meteohub,2013-10-08 21:33:00,
2013-10-08 17:38:00,67.6,47.8,30.21,NNE,23,4.0,12.0,49,0.00,,,0.01,243.0,meteohub,2013-10-08 21:38:00,
2013-10-08 17:43:00,67.5,48.2,30.20,NNE,32,3.0,11.0,50,0.00,,,0.01,223.0,meteohub,2013-10-08 21:43:00,
2013-10-08 17:48:00,67.5,47.7,30.20,North,9,5.0,10.0,49,0.00,,,0.01,193.0,meteohub,2013-10-08 21:48:00,
2013-10-08 17:53:00,67.1,48.4,30.20,East,101,4.0,10.0,51,0.00,,,0.01,163.0,meteohub,2013-10-08 21:53:00,
2013-10-08 17:58:00,67.1,47.8,30.21,ENE,67,1.0,10.0,50,0.00,,,0.01,130.0,meteohub,2013-10-08 21:58:00,
2013-10-08 18:03:00,66.7,48.0,30.21,NE,44,5.0,10.0,51,0.00,,,0.01,88.0,meteohub,2013-10-08 22:03:00,
2013-10-08 18:09:00,66.6,47.8,30.21,ENE,66,3.0,12.0,51,0.00,,,0.01,46.0,meteohub,2013-10-08 22:09:00,
2013-10-08 18:14:00,66.4,47.7,30.21,NE,46,5.0,12.0,51,0.00,,,0.01,26.0,meteohub,2013-10-08 22:14:00,
2013-10-08 18:19:00,66.0,47.8,30.21,East,92,1.0,7.0,52,0.00,,,0.01,23.0,meteohub,2013-10-08 22:19:00,
2013-10-08 18:24:00,65.7,48.6,30.21,NE,55,2.0,7.0,54,0.00,,,0.01,21.0,meteohub,2013-10-08 22:24:00,
2013-10-08 18:29:00,65.5,47.8,30.21,NE,45,4.0,7.0,53,0.00,,,0.01,19.0,meteohub,2013-10-08 22:29:00,
2013-10-08 18:34:00,65.1,48.6,30.21,NE,36,2.0,7.0,55,0.00,,,0.01,18.0,meteohub,2013-10-08 22:34:00,
2013-10-08 18:39:00,64.8,48.2,30.22,East,79,3.0,7.0,55,0.00,,,0.01,16.0,meteohub,2013-10-08 22:39:00,
2013-10-08 18:44:00,64.2,47.7,30.22,East,79,5.0,7.0,55,0.00,,,0.01,14.0,meteohub,2013-10-08 22:44:00,
2013-10-08 18:49:00,63.9,48.4,30.22,North,4,1.0,7.0,57,0.00,,,0.01,12.0,meteohub,2013-10-08 22:49:00,
2013-10-08 18:54:00,63.5,48.0,30.22,NE,46,0.0,6.0,57,0.00,,,0.01,11.0,meteohub,2013-10-08 22:54:00,
2013-10-08 19:00:00,63.1,48.2,30.22,ENE,59,2.0,6.0,58,0.00,,,0.01,9.0,meteohub,2013-10-08 23:00:00,
2013-10-08 19:05:00,62.8,48.2,30.22,ENE,62,1.0,3.0,59,0.00,,,0.01,7.0,meteohub,2013-10-08 23:05:00,
2013-10-08 19:10:00,62.2,48.6,30.22,ENE,67,0.0,3.0,61,0.00,,,0.01,5.0,meteohub,2013-10-08 23:10:00,
2013-10-08 19:15:00,61.9,48.7,30.22,ENE,67,1.0,3.0,62,0.00,,,0.01,0.0,meteohub,2013-10-08 23:15:00,
2013-10-08 19:20:00,61.2,48.4,30.22,ENE,67,1.0,3.0,63,0.00,,,0.01,0.0,meteohub,2013-10-08 23:20:00,
2013-10-08 19:26:00,60.6,48.4,30.22,NE,36,0.0,3.0,64,0.00,,,0.01,0.0,meteohub,2013-10-08 23:26:00,
2013-10-08 19:31:00,60.1,48.7,30.22,NE,36,0.0,3.0,66,0.00,,,0.01,0.0,meteohub,2013-10-08 23:31:00,
2013-10-08 19:36:00,59.4,48.7,30.23,NE,38,0.0,3.0,68,0.00,,,0.01,0.0,meteohub,2013-10-08 23:36:00,
2013-10-08 19:41:00,58.6,48.6,30.23,NE,43,0.0,2.0,69,0.00,,,0.01,0.0,meteohub,2013-10-08 23:41:00,
2013-10-08 19:46:00,58.1,48.4,30.23,NE,44,0.0,2.0,70,0.00,,,0.01,0.0,meteohub,2013-10-08 23:46:00,
2013-10-08 19:51:00,57.6,48.2,30.23,NE,44,1.0,2.0,71,0.00,,,0.01,0.0,meteohub,2013-10-08 23:51:00,
2013-10-08 19:56:00,57.0,47.7,30.23,ENE,59,1.0,2.0,71,0.00,,,0.01,0.0,meteohub,2013-10-08 23:56:00,
2013-10-08 20:02:00,56.8,47.8,30.23,ENE,57,0.0,3.0,72,0.00,,,0.01,0.0,meteohub,2013-10-09 00:02:00,
2013-10-08 20:07:00,56.5,47.5,30.23,NE,42,0.0,3.0,72,0.00,,,0.00,0.0,meteohub,2013-10-09 00:07:00,
2013-10-08 20:12:00,56.5,48.0,30.23,ENE,59,0.0,3.0,73,0.00,,,0.00,0.0,meteohub,2013-10-09 00:12:00,
2013-10-08 20:17:00,56.1,47.7,30.24,ENE,58,0.0,3.0,73,0.00,,,0.00,0.0,meteohub,2013-10-09 00:17:00,
2013-10-08 20:22:00,55.9,47.5,30.24,ENE,69,1.0,3.0,73,0.00,,,0.00,0.0,meteohub,2013-10-09 00:22:00,
2013-10-08 20:27:00,55.8,47.7,30.24,ENE,69,1.0,3.0,74,0.00,,,0.00,0.0,meteohub,2013-10-09 00:27:00,
2013-10-08 20:32:00,55.4,47.3,30.24,ENE,63,2.0,2.0,74,0.00,,,0.00,0.0,meteohub,2013-10-09 00:32:00,
2013-10-08 20:37:00,55.2,47.5,30.24,ENE,57,1.0,2.0,75,0.00,,,0.00,0.0,meteohub,2013-10-09 00:37:00,
2013-10-08 20:42:00,55.0,47.3,30.25,ENE,65,0.0,5.0,75,0.00,,,0.00,0.0,meteohub,2013-10-09 00:42:00,
2013-10-08 20:48:00,55.0,47.3,30.25,NE,48,1.0,5.0,75,0.00,,,0.00,0.0,meteohub,2013-10-09 00:48:00,
2013-10-08 20:53:00,55.0,47.3,30.25,NE,48,0.0,5.0,75,0.00,,,0.00,0.0,meteohub,2013-10-09 00:53:00,
2013-10-08 20:58:00,54.7,48.0,30.25,NE,48,0.0,4.0,78,0.00,,,0.00,0.0,meteohub,2013-10-09 00:58:00,
2013-10-08 21:03:00,54.3,47.7,30.25,NE,48,0.0,2.0,78,0.00,,,0.00,0.0,meteohub,2013-10-09 01:03:00,
2013-10-08 21:08:00,54.0,47.3,30.25,NE,48,0.0,2.0,78,0.00,,,0.00,0.0,meteohub,2013-10-09 01:08:00,
2013-10-08 21:14:00,53.4,46.8,30.25,NE,48,0.0,2.0,78,0.00,,,0.00,0.0,meteohub,2013-10-09 01:14:00,
2013-10-08 21:19:00,53.1,47.1,30.26,NE,48,0.0,2.0,80,0.00,,,0.00,0.0,meteohub,2013-10-09 01:19:00,
2013-10-08 21:24:00,52.5,46.9,30.26,NE,48,0.0,2.0,81,0.00,,,0.00,0.0,meteohub,2013-10-09 01:24:00,
2013-10-08 21:29:00,52.2,46.6,30.26,NE,48,0.0,2.0,81,0.00,,,0.00,0.0,meteohub,2013-10-09 01:29:00,
2013-10-08 21:34:00,51.8,46.8,30.26,NE,48,0.0,1.0,83,0.00,,,0.00,0.0,meteohub,2013-10-09 01:34:00,
2013-10-08 21:40:00,51.4,46.8,30.27,NE,48,0.0,1.0,84,0.00,,,0.00,0.0,meteohub,2013-10-09 01:40:00,
2013-10-08 21:45:00,51.1,46.4,30.27,NE,48,0.0,1.0,84,0.00,,,0.00,0.0,meteohub,2013-10-09 01:45:00,
2013-10-08 21:50:00,50.7,46.4,30.27,NE,48,0.0,1.0,85,0.00,,,0.00,0.0,meteohub,2013-10-09 01:50:00,
2013-10-08 21:55:00,50.5,46.2,30.27,NE,48,1.0,1.0,85,0.00,,,0.00,0.0,meteohub,2013-10-09 01:55:00,
2013-10-08 22:00:00,50.2,45.9,30.26,NE,48,0.0,2.0,85,0.00,,,0.00,0.0,meteohub,2013-10-09 02:00:00,
2013-10-08 22:05:00,50.0,46.0,30.26,NE,48,0.0,2.0,86,0.00,,,0.00,0.0,meteohub,2013-10-09 02:05:00,
2013-10-08 22:11:00,49.8,45.9,30.27,NE,48,0.0,2.0,86,0.00,,,0.00,0.0,meteohub,2013-10-09 02:11:00,
2013-10-08 22:16:00,49.6,45.9,30.26,NE,48,0.0,2.0,87,0.00,,,0.00,0.0,meteohub,2013-10-09 02:16:00,
2013-10-08 22:21:00,49.5,46.0,30.27,ENE,67,0.0,3.0,88,0.00,,,0.00,0.0,meteohub,2013-10-09 02:21:00,
2013-10-08 22:26:00,49.3,45.9,30.27,ENE,67,0.0,3.0,88,0.00,,,0.00,0.0,meteohub,2013-10-09 02:26:00,
2013-10-08 22:31:00,49.3,46.2,30.27,ENE,69,1.0,3.0,89,0.00,,,0.00,0.0,meteohub,2013-10-09 02:31:00,
2013-10-08 22:36:00,49.3,45.9,30.26,ENE,70,1.0,3.0,88,0.00,,,0.00,0.0,meteohub,2013-10-09 02:36:00,
2013-10-08 22:42:00,49.3,46.2,30.27,ENE,70,0.0,3.0,89,0.00,,,0.00,0.0,meteohub,2013-10-09 02:42:00,
2013-10-08 22:47:00,49.5,46.0,30.27,ENE,70,0.0,3.0,88,0.00,,,0.00,0.0,meteohub,2013-10-09 02:47:00,
2013-10-08 22:52:00,49.8,46.4,30.27,ENE,71,1.0,3.0,88,0.00,,,0.00,0.0,meteohub,2013-10-09 02:52:00,
2013-10-08 22:57:00,50.2,46.4,30.27,East,99,1.0,6.0,87,0.00,,,0.00,0.0,meteohub,2013-10-09 02:57:00,
2013-10-08 23:02:00,50.4,46.6,30.27,East,91,0.0,6.0,87,0.00,,,0.00,0.0,meteohub,2013-10-09 03:02:00,
2013-10-08 23:07:00,50.5,46.6,30.27,East,85,0.0,4.0,86,0.00,,,0.00,0.0,meteohub,2013-10-09 03:07:00,
2013-10-08 23:12:00,50.5,46.6,30.27,East,85,0.0,3.0,86,0.01,,,0.01,0.0,meteohub,2013-10-09 03:12:00,
2013-10-08 23:17:00,50.5,46.6,30.27,East,90,1.0,2.0,86,0.01,,,0.01,0.0,meteohub,2013-10-09 03:17:00,
2013-10-08 23:22:00,50.5,46.6,30.27,ENE,76,0.0,2.0,86,0.01,,,0.01,0.0,meteohub,2013-10-09 03:22:00,
2013-10-08 23:27:00,50.5,46.2,30.27,ENE,78,0.0,4.0,85,0.01,,,0.01,0.0,meteohub,2013-10-09 03:27:00,
2013-10-08 23:32:00,51.1,46.8,30.27,ENE,59,1.0,4.0,85,0.01,,,0.01,0.0,meteohub,2013-10-09 03:32:00,
2013-10-08 23:37:00,51.4,46.8,30.27,East,94,0.0,5.0,84,0.01,,,0.01,0.0,meteohub,2013-10-09 03:37:00,
2013-10-08 23:42:00,51.8,47.1,30.26,ENE,78,0.0,5.0,84,0.01,,,0.01,0.0,meteohub,2013-10-09 03:42:00,
2013-10-08 23:47:00,52.0,46.9,30.26,ENE,61,1.0,4.0,83,0.01,,,0.01,0.0,meteohub,2013-10-09 03:47:00,
2013-10-08 23:52:00,52.0,46.9,30.26,ESE,110,2.0,4.0,83,0.01,,,0.01,0.0,meteohub,2013-10-09 03:52:00,
2013-10-08 23:57:00,52.0,46.9,30.26,ESE,109,2.0,4.0,83,0.01,,,0.01,0.0,meteohub,2013-10-09 03:57:00,